Weather in Sudakovo

Russia / Kaluga Oblast     54°23′05″N   36°51′17″E
temp.,
°C
wind,
m/s
gust,
m/s
humid.,
%
clouds,
%
prec.,
mm/h
press.,
hPa
HPBL,
m
20 april, tue
tue2000:00+3ene61297100 0.6 1021809
03:00+3ene61297100 1.1 1020616
06:00+3ene61292100 0.9 1019616
09:00+4e61287100 1.1 1019594
12:00+5e71191100 0.0 1018733
15:00+3ene61096100 0.0 1017598
18:00+2ene61297100 0.0 1014532
21:00+2ene51097100 0.1 1012615
21 april, wed
wed2100:00+1ne51098100 1.4 1008451
03:00+1nne4898100 3.8 1005322
06:00+1nnw34100100 1.9 1003180
09:00+2w35100100 2.9 1004287
12:00+3wsw5892100 0.1 1005783
15:00+4wsw5891100 0.1 1008865
18:00+4wsw4893100 0.1 1009566
21:00+4ssw3796100 0.1 1011201
22 april, thu
thu2200:00+4ssw3896100 0.1 1012215
03:00+3ssw3896100 0.2 1013201
06:00+2ssw389744 0.1 1014194
09:00+7ssw478319 0.1 1015537
12:00+11sw566340 0.3 10151362
15:00+11ssw676987 0.6 10151256
18:00+10s5979100 0.1 1015452
21:00+7sse4109259 0.1 1016225
23 april, fri
fri2300:00+6sse49957 0.0 1015189
03:00+6s4109394 0.0 1015172
06:00+6s51290100 0.0 1015267
09:00+11s6117653 0.1 1014495
12:00+15s8126141 0.6 10131608
15:00+15s8136079 2.5 10121842
18:00+12ssw497699 2.3 1012498
21:00+7wnw2395100 4.1 1013164
24 april, sat
sat2400:00+6w2395100 0.6 1012300
03:00+4wnw5897100 6.8 1011682
06:00+4wnw4695100 2.6 1011546
09:00+5wsw3581100 2.6 1012691
12:00+8w4561100 0.4 10121352
15:00+10w5744100 0.8 10112257
18:00+8w57560 0.0 10111055
21:00+4w367710 0.1 1012105